Location: Tamazert
(32.6352°N, 5.2072°W)
Time: 03:43:18
(UTC+00:00)

Tiros 1 despin weight - Pass Details

Date: 05 October 2022
Orbit: 590 x 637 km, 48.2° (Epoch: 30 November)

Event Time Altitude Azimuth Distance (km) Brightness Sun altitude
Rises 22:28:19 0° 300° (WNW) 2,905 - -53.7°
Reaches altitude 10° 22:30:45 10° 292° (WNW) 2,003 - -54.1°
Maximum altitude 22:34:57 35° 226° (SW) 1,012 - -54.7°
Drops below altitude 10° 22:39:11 10° 160° (SSE) 2,011 - -55.3°
Sets 22:41:39 0° 152° (SSE) 2,918 - -55.7°
